Вернуться в каталог

STARLINK-33648

АктивенСвязьVLEO
NORAD 63371·PAYLOAD·🇺🇸 United States

Запущен Mar 26, 2025 с Vandenberg Space Force Base

Loading…

Ближайшие Пролёты (ближайшие 24 часа)

TLE

СвежийSource: CelesTrak SupGP

Эпоха: Sep 15, 2026, 02:49 UTC

1 63371C 25063J   26258.11784722 -.00035549  00000+0 -11430-2 0  2587
2 63371  53.1592 251.6637 0001415  88.4055 314.2577 15.31724956    11

Отслеживайте STARLINK-33648 в реальном времени с AllMySat

Download on the App Store